Location: Unspecified
(42.7170°S, 0.0000°E)
Time: 01:02:23
(UTC+00:00)

N. Korean satellite - Pass Details

Date: 23 May 2019
Orbit: 455 x 510 km, 97.2° (Epoch: 26 June)

Event Time Altitude Azimuth Distance (km) Brightness Sun altitude
Rises 05:45:02 0° 354° (N) 2,471 10.3 -15.8°
Reaches altitude 10° 05:47:10 10° 344° (NNW) 1,609 9.2 -15.5°
Maximum altitude 05:50:21 34° 277° (W) 794 7.1 -14.9°
Enters shadow 05:51:21 28° 242° (WSW) 914 7.4 -14.7°
